TimeMDT,TemperatureF,Dew PointF,Humidity,Sea Level PressureIn,VisibilityMPH,Wind Direction,Wind SpeedMPH,Gust SpeedMPH,PrecipitationIn,Events,Conditions,WindDirDegrees,DateUTC
12:53 AM,48.0,30.0,50,29.85,10.0,South,4.6,-,N/A,,Scattered Clouds,170,2013-03-16 06:53:00
1:53 AM,48.9,30.9,50,29.84,10.0,West,11.5,-,N/A,,Overcast,270,2013-03-16 07:53:00
2:53 AM,50.0,30.9,48,29.82,10.0,NE,10.4,-,N/A,,Overcast,50,2013-03-16 08:53:00
3:53 AM,53.1,28.9,40,29.80,10.0,SW,8.1,-,N/A,,Clear,220,2013-03-16 09:53:00
4:53 AM,48.0,32.0,54,29.79,10.0,Calm,Calm,-,N/A,,Overcast,0,2013-03-16 10:53:00
5:53 AM,52.0,30.9,45,29.78,10.0,SW,8.1,-,0.00,,Overcast,220,2013-03-16 11:53:00
6:53 AM,50.0,30.9,48,29.79,10.0,SE,11.5,-,N/A,,Overcast,130,2013-03-16 12:53:00
7:53 AM,52.0,30.0,43,29.79,10.0,East,9.2,-,N/A,,Mostly Cloudy,90,2013-03-16 13:53:00
8:53 AM,54.0,32.0,43,29.81,10.0,East,10.4,-,N/A,,Scattered Clouds,100,2013-03-16 14:53:00
9:53 AM,54.0,34.0,47,29.84,10.0,SE,15.0,-,N/A,,Mostly Cloudy,140,2013-03-16 15:53:00
10:53 AM,55.0,37.9,53,29.83,10.0,SSE,18.4,26.5,N/A,,Mostly Cloudy,160,2013-03-16 16:53:00
11:53 AM,55.0,37.9,53,29.85,10.0,SSE,21.9,25.3,N/A,,Partly Cloudy,160,2013-03-16 17:53:00
12:53 PM,59.0,37.0,44,29.82,10.0,South,18.4,27.6,N/A,,Clear,170,2013-03-16 18:53:00
1:53 PM,59.0,37.9,46,29.79,10.0,SSE,17.3,26.5,N/A,,Partly Cloudy,160,2013-03-16 19:53:00
2:53 PM,60.1,36.0,41,29.75,10.0,SSE,13.8,-,N/A,,Scattered Clouds,160,2013-03-16 20:53:00
3:53 PM,63.0,30.9,30,29.71,10.0,SE,6.9,-,N/A,,Clear,140,2013-03-16 21:53:00
4:53 PM,60.1,34.0,38,29.73,10.0,SE,17.3,-,0.00,Rain,Light Rain,140,2013-03-16 22:53:00
5:53 PM,57.0,30.0,36,29.73,10.0,SE,13.8,23.0,0.00,,Scattered Clouds,140,2013-03-16 23:53:00
6:00 PM,57.2,30.2,36,29.84,10.0,SE,12.7,-,N/A,,Partly Cloudy,130,2013-03-17 00:00:00
6:53 PM,54.0,32.0,43,29.74,10.0,East,12.7,-,N/A,,Scattered Clouds,90,2013-03-17 00:53:00
7:53 PM,51.1,30.0,44,29.73,10.0,ESE,8.1,-,N/A,,Overcast,120,2013-03-17 01:53:00
8:53 PM,48.9,33.1,54,29.75,10.0,ESE,15.0,-,N/A,,Partly Cloudy,120,2013-03-17 02:53:00
9:53 PM,46.9,36.0,66,29.76,10.0,ESE,16.1,-,N/A,,Partly Cloudy,110,2013-03-17 03:53:00
10:53 PM,44.1,35.1,71,29.76,10.0,ESE,15.0,-,N/A,,Clear,110,2013-03-17 04:53:00
11:53 PM,44.1,34.0,68,29.76,10.0,East,12.7,-,N/A,,Clear,100,2013-03-17 05:53:00